sat.trackr.live / text

‹ back to catalog

ONEWEB-0669

NORAD 55828 · 2023-029AJ

PAYLOAD ACTIVE UNKNOWN

§ Identity

Operator
Country
UK
Launch date
2023-03-09
Launch site
AFETR
Launch vehicle
Mass (kg)
RCS (m²)

Purposes: comms

External: N2YO · Heavens-Above · Gunter

§ Orbital elements

Epoch: 2026-09-19T22:42:01.264608Z

Period
109.03 min
Inclination
87.9141°
Eccentricity
0.0002380
Mean motion
13.20772732 rev/d
Perigee alt
1,180.0 km
Apogee alt
1,183.6 km
Semi-major
7,559.9 km
B*
8.8973e-5
RAAN
255.5366°
Arg perigee
96.9699°
Mean anomaly
263.1705°
Rev number
17,365

§ Raw data

ONEWEB-06691 55828U 23029AJ  26262.94584797  .00000049  00000+0  88973-4 0  99962 55828  87.9141 255.5366 0002380  96.9699 263.1705 13.20772732173653

JSON: /api/v1/satellites/55828 · /tle

For live sub-satellite position, see the globe view (requires WebGL).

§ Visibility from observer

Set your observer location to see the next 7 days of passes ≥ 10°. The values pass through the URL so the page stays shareable.

No JS? Fill the form by hand. The geolocation button needs JavaScript.